Location: Nairn
(57.5833°N, 3.8667°W)
Time: 05:21:53
(UTC+00:00)

Cosmos 1627 Rocket - Visible Passes

Search period start: 26 November 2020 00:00
Search period end: 06 December 2020 00:00
Orbit: 950 x 1005 km, 82.9° (Epoch: 25 November)

Date Brightness Start Highest point End Pass type
(mag) Time Alt. Az. Time Alt. Az. Time Alt. Az.
26 Nov 7.1 02:03:36 13° NNE 02:03:36 13° NNE 02:04:07 10° NNE visible
26 Nov 6.6 03:48:18 15° N 03:48:18 15° N 03:49:25 10° N visible
27 Nov 7.0 02:29:30 13° N 02:29:30 13° N 02:30:07 10° N visible
27 Nov 6.6 04:14:13 13° N 04:14:13 13° N 04:15:09 10° N visible
28 Nov 6.9 02:55:24 13° N 02:55:24 13° N 02:56:02 10° N visible
28 Nov 6.6 04:40:06 12° NNW 04:40:06 12° NNW 04:40:42 10° N visible
29 Nov 6.8 03:21:18 12° N 03:21:18 12° N 03:21:52 10° N visible
30 Nov 7.2 02:02:28 10° NNE 02:02:28 10° NNE 02:02:31 10° NNE visible
30 Nov 6.8 03:47:10 12° N 03:47:10 12° N 03:47:37 10° N visible
01 Dec 7.1 02:28:20 11° N 02:28:20 11° N 02:28:27 10° N visible
01 Dec 6.8 04:13:02 10° N 04:13:02 10° N 04:13:12 10° N visible
02 Dec 7.0 02:54:11 10° N 02:54:11 10° N 02:54:18 10° N visible
03 Dec 7.0 03:20:02 10° N 03:20:02 10° N 03:20:04 10° N visible
